STARLINK-2317

Last updated on Sat Apr 24 2021 00:02:02 GMT+0000 (Coordinated Universal Time)

1 47982U 21024F 21113.25001157 .00078273 00000-0 55676-3 0 9997 2 47982 53.0491 55.7113 0001256 83.9000 63.1742 15.73203204 1821

Satellite not in orbit